Time,TemperatureF,DewpointF,PressureIn,WindDirection,WindDirectionDegrees,WindSpeedMPH,WindSpeedGustMPH,Humidity,HourlyPrecipIn,Conditions,Clouds,dailyrainin,SolarRadiationWatts/m^2,SoftwareType,DateUTC
2013-08-24 00:02:00,64.0,34.0,-100.00,North,1,13.0,19.0,33,0.00,,,0.00,2.000000,,2013-08-24 07:02:00,
2013-08-24 00:11:00,64.0,34.0,-100.00,North,1,13.0,19.0,33,0.00,,,0.00,2.000000,,2013-08-24 07:11:00,
2013-08-24 00:43:00,65.0,35.0,-100.00,North,1,13.0,20.0,33,0.00,,,0.00,3.000000,,2013-08-24 07:43:00,
2013-08-24 00:53:00,65.0,35.0,-100.00,North,1,13.0,20.0,33,0.00,,,0.00,3.000000,,2013-08-24 07:53:00,
2013-08-24 01:02:00,65.0,35.0,-100.00,North,1,13.0,20.0,33,0.00,,,0.00,3.000000,,2013-08-24 08:02:00,
2013-08-24 01:12:00,65.0,35.0,-100.00,North,1,13.0,20.0,33,0.00,,,0.00,3.000000,,2013-08-24 08:12:00,
2013-08-24 01:42:00,64.0,36.0,-100.00,North,1,12.0,19.0,35,0.00,,,0.00,3.000000,,2013-08-24 08:42:00,
2013-08-24 01:52:00,64.0,36.0,-100.00,North,1,12.0,19.0,35,0.00,,,0.00,3.000000,,2013-08-24 08:52:00,
2013-08-24 02:01:00,64.0,36.0,-100.00,North,1,12.0,19.0,35,0.00,,,0.00,3.000000,,2013-08-24 09:01:00,
2013-08-24 02:11:00,64.0,36.0,-100.00,North,1,12.0,19.0,35,0.00,,,0.00,3.000000,,2013-08-24 09:11:00,
2013-08-24 02:44:00,62.0,35.0,-100.00,North,1,11.0,18.0,37,0.00,,,0.00,2.000000,,2013-08-24 09:44:00,
2013-08-24 02:53:00,62.0,35.0,-100.00,North,1,11.0,18.0,37,0.00,,,0.00,2.000000,,2013-08-24 09:53:00,
2013-08-24 03:03:00,62.0,35.0,-100.00,North,1,11.0,18.0,37,0.00,,,0.00,2.000000,,2013-08-24 10:03:00,
2013-08-24 03:13:00,62.0,35.0,-100.00,North,1,11.0,18.0,37,0.00,,,0.00,2.000000,,2013-08-24 10:13:00,
2013-08-24 03:42:00,62.0,29.0,-100.00,North,1,10.0,16.0,29,0.00,,,0.00,3.000000,,2013-08-24 10:42:00,
2013-08-24 03:53:00,62.0,29.0,-100.00,North,1,10.0,16.0,29,0.00,,,0.00,3.000000,,2013-08-24 10:53:00,
2013-08-24 04:02:00,62.0,29.0,-100.00,North,1,10.0,16.0,29,0.00,,,0.00,3.000000,,2013-08-24 11:02:00,
2013-08-24 04:11:00,62.0,29.0,-100.00,North,1,10.0,16.0,29,0.00,,,0.00,3.000000,,2013-08-24 11:11:00,
2013-08-24 04:42:00,62.0,33.0,-100.00,North,1,13.0,18.0,34,0.00,,,0.00,2.000000,,2013-08-24 11:42:00,
2013-08-24 04:52:00,62.0,33.0,-100.00,North,1,13.0,18.0,34,0.00,,,0.00,2.000000,,2013-08-24 11:52:00,
2013-08-24 05:02:00,62.0,33.0,-100.00,North,1,13.0,18.0,34,0.00,,,0.00,2.000000,,2013-08-24 12:02:00,
2013-08-24 05:11:00,62.0,33.0,-100.00,North,1,13.0,18.0,34,0.00,,,0.00,2.000000,,2013-08-24 12:11:00,
2013-08-24 05:42:00,63.0,34.0,-100.00,North,1,16.0,24.0,34,0.00,,,0.00,2.000000,,2013-08-24 12:42:00,
2013-08-24 05:52:00,63.0,34.0,-100.00,North,1,16.0,24.0,34,0.00,,,0.00,2.000000,,2013-08-24 12:52:00,
2013-08-24 06:02:00,63.0,34.0,-100.00,North,1,16.0,24.0,34,0.00,,,0.00,2.000000,,2013-08-24 13:02:00,
2013-08-24 06:11:00,63.0,34.0,-100.00,North,1,16.0,24.0,34,0.00,,,0.00,2.000000,,2013-08-24 13:11:00,
2013-08-24 06:42:00,62.0,34.0,-100.00,North,1,16.0,25.0,35,0.00,,,0.00,3.000000,,2013-08-24 13:42:00,
2013-08-24 06:52:00,62.0,34.0,-100.00,North,1,16.0,25.0,35,0.00,,,0.00,3.000000,,2013-08-24 13:52:00,
2013-08-24 07:02:00,62.0,34.0,-100.00,North,1,16.0,25.0,35,0.00,,,0.00,3.000000,,2013-08-24 14:02:00,
2013-08-24 07:11:00,62.0,34.0,-100.00,North,1,16.0,25.0,35,0.00,,,0.00,3.000000,,2013-08-24 14:11:00,
2013-08-24 07:42:00,63.0,36.0,-100.00,North,1,16.0,24.0,36,0.00,,,0.00,51.000000,,2013-08-24 14:42:00,
2013-08-24 07:52:00,63.0,36.0,-100.00,North,1,16.0,24.0,36,0.00,,,0.00,51.000000,,2013-08-24 14:52:00,
2013-08-24 08:01:00,63.0,36.0,-100.00,North,1,16.0,24.0,36,0.00,,,0.00,51.000000,,2013-08-24 15:01:00,
2013-08-24 08:11:00,63.0,36.0,-100.00,North,1,16.0,24.0,36,0.00,,,0.00,51.000000,,2013-08-24 15:11:00,
2013-08-24 08:45:00,64.0,37.0,-100.00,North,1,15.0,23.0,36,0.00,,,0.00,282.000000,,2013-08-24 15:45:00,
2013-08-24 08:54:00,64.0,37.0,-100.00,North,1,15.0,23.0,36,0.00,,,0.00,282.000000,,2013-08-24 15:54:00,
2013-08-24 09:04:00,64.0,37.0,-100.00,North,1,15.0,23.0,36,0.00,,,0.00,282.000000,,2013-08-24 16:04:00,
2013-08-24 09:13:00,64.0,37.0,-100.00,North,1,15.0,23.0,36,0.00,,,0.00,282.000000,,2013-08-24 16:13:00,
2013-08-24 09:42:00,67.0,36.0,-100.00,North,0,15.0,22.0,32,0.00,,,0.00,525.000000,,2013-08-24 16:42:00,
2013-08-24 09:53:00,67.0,36.0,-100.00,North,0,15.0,22.0,32,0.00,,,0.00,525.000000,,2013-08-24 16:53:00,
2013-08-24 10:02:00,67.0,36.0,-100.00,North,0,15.0,22.0,32,0.00,,,0.00,525.000000,,2013-08-24 17:02:00,
2013-08-24 10:12:00,67.0,36.0,-100.00,North,0,15.0,22.0,32,0.00,,,0.00,525.000000,,2013-08-24 17:12:00,
2013-08-24 10:42:00,70.0,37.0,-100.00,North,0,15.0,23.0,30,0.00,,,0.00,746.000000,,2013-08-24 17:42:00,
2013-08-24 10:52:00,70.0,37.0,-100.00,North,0,15.0,23.0,30,0.00,,,0.00,746.000000,,2013-08-24 17:52:00,
2013-08-24 11:02:00,70.0,37.0,-100.00,North,0,15.0,23.0,30,0.00,,,0.00,746.000000,,2013-08-24 18:02:00,
2013-08-24 11:13:00,70.0,37.0,-100.00,North,0,15.0,23.0,30,0.00,,,0.00,746.000000,,2013-08-24 18:13:00,
2013-08-24 11:42:00,73.0,34.0,-100.00,North,0,15.0,27.0,24,0.00,,,0.00,920.000000,,2013-08-24 18:42:00,
2013-08-24 11:53:00,73.0,34.0,-100.00,North,0,15.0,27.0,24,0.00,,,0.00,920.000000,,2013-08-24 18:53:00,
2013-08-24 12:01:00,73.0,34.0,-100.00,North,0,15.0,27.0,24,0.00,,,0.00,920.000000,,2013-08-24 19:01:00,
2013-08-24 12:12:00,73.0,34.0,-100.00,North,0,15.0,27.0,24,0.00,,,0.00,920.000000,,2013-08-24 19:12:00,
2013-08-24 12:42:00,74.0,35.0,-100.00,North,0,16.0,26.0,24,0.00,,,0.00,1034.000000,,2013-08-24 19:42:00,
2013-08-24 12:52:00,74.0,35.0,-100.00,North,0,16.0,26.0,24,0.00,,,0.00,1034.000000,,2013-08-24 19:52:00,
2013-08-24 13:02:00,74.0,35.0,-100.00,North,0,16.0,26.0,24,0.00,,,0.00,1034.000000,,2013-08-24 20:02:00,
2013-08-24 13:11:00,74.0,35.0,-100.00,North,0,16.0,26.0,24,0.00,,,0.00,1034.000000,,2013-08-24 20:11:00,
2013-08-24 13:42:00,74.0,43.0,-100.00,North,0,15.0,24.0,33,0.00,,,0.00,1074.000000,,2013-08-24 20:42:00,
2013-08-24 13:52:00,74.0,43.0,-100.00,North,0,15.0,24.0,33,0.00,,,0.00,1074.000000,,2013-08-24 20:52:00,
2013-08-24 14:02:00,74.0,43.0,-100.00,North,0,15.0,24.0,33,0.00,,,0.00,1074.000000,,2013-08-24 21:02:00,
2013-08-24 14:11:00,74.0,43.0,-100.00,North,0,15.0,24.0,33,0.00,,,0.00,1074.000000,,2013-08-24 21:11:00,
2013-08-24 14:43:00,75.0,43.0,-100.00,North,0,14.0,24.0,32,0.00,,,0.00,1049.000000,,2013-08-24 21:43:00,
2013-08-24 14:55:00,75.0,43.0,-100.00,North,0,14.0,24.0,32,0.00,,,0.00,1049.000000,,2013-08-24 21:55:00,
2013-08-24 15:04:00,75.0,43.0,-100.00,North,0,14.0,24.0,32,0.00,,,0.00,1049.000000,,2013-08-24 22:04:00,
2013-08-24 15:13:00,75.0,43.0,-100.00,North,0,14.0,24.0,32,0.00,,,0.00,1049.000000,,2013-08-24 22:13:00,
2013-08-24 15:43:00,75.0,32.0,-100.00,North,0,14.0,24.0,21,0.00,,,0.00,966.000000,,2013-08-24 22:43:00,
2013-08-24 15:53:00,75.0,32.0,-100.00,North,0,14.0,24.0,21,0.00,,,0.00,966.000000,,2013-08-24 22:53:00,
2013-08-24 16:03:00,75.0,32.0,-100.00,North,0,14.0,24.0,21,0.00,,,0.00,966.000000,,2013-08-24 23:03:00,
2013-08-24 16:12:00,75.0,32.0,-100.00,North,0,14.0,24.0,21,0.00,,,0.00,966.000000,,2013-08-24 23:12:00,
2013-08-24 16:43:00,75.0,31.0,-100.00,North,0,14.0,25.0,20,0.00,,,0.00,813.000000,,2013-08-24 23:43:00,
2013-08-24 16:53:00,75.0,31.0,-100.00,North,0,14.0,25.0,20,0.00,,,0.00,813.000000,,2013-08-24 23:53:00,
2013-08-24 17:02:00,75.0,31.0,-100.00,North,0,14.0,25.0,20,0.00,,,0.00,813.000000,,2013-08-25 00:02:00,
2013-08-24 17:11:00,75.0,31.0,-100.00,North,0,14.0,25.0,20,0.00,,,0.00,813.000000,,2013-08-25 00:11:00,
2013-08-24 17:42:00,71.0,34.0,-100.00,North,0,15.0,26.0,26,0.00,,,0.00,600.000000,,2013-08-25 00:42:00,
2013-08-24 17:52:00,71.0,34.0,-100.00,North,0,15.0,26.0,26,0.00,,,0.00,600.000000,,2013-08-25 00:52:00,
2013-08-24 18:01:00,71.0,34.0,-100.00,North,0,15.0,26.0,26,0.00,,,0.00,600.000000,,2013-08-25 01:01:00,
2013-08-24 18:11:00,71.0,34.0,-100.00,North,0,15.0,26.0,26,0.00,,,0.00,600.000000,,2013-08-25 01:11:00,
2013-08-24 18:52:00,68.0,38.0,-100.00,North,0,14.0,25.0,33,0.00,,,0.00,364.000000,,2013-08-25 01:52:00,
2013-08-24 19:02:00,68.0,38.0,-100.00,North,0,14.0,25.0,33,0.00,,,0.00,364.000000,,2013-08-25 02:02:00,
2013-08-24 19:11:00,68.0,38.0,-100.00,North,0,14.0,25.0,33,0.00,,,0.00,364.000000,,2013-08-25 02:11:00,
2013-08-24 20:11:00,63.0,36.0,-100.00,North,0,16.0,22.0,37,0.00,,,0.00,103.000000,,2013-08-25 03:11:00,
2013-08-24 20:44:00,60.0,43.0,-100.00,North,1,14.0,21.0,54,0.00,,,0.00,5.000000,,2013-08-25 03:44:00,
2013-08-24 20:54:00,60.0,43.0,-100.00,North,1,14.0,21.0,54,0.00,,,0.00,5.000000,,2013-08-25 03:54:00,
2013-08-24 21:02:00,-999.0,-99.9,-100.00,North,1,14.0,21.0,-999,-99.99,,,-99.99,5.000000,,2013-08-25 04:02:00,
2013-08-24 21:14:00,60.0,43.0,-100.00,North,1,14.0,21.0,54,0.00,,,0.00,5.000000,,2013-08-25 04:14:00,
2013-08-24 21:44:00,58.0,45.0,-100.00,North,1,13.0,26.0,61,0.00,,,0.00,3.000000,,2013-08-25 04:44:00,
2013-08-24 21:54:00,58.0,45.0,-100.00,North,1,13.0,26.0,61,0.00,,,0.00,3.000000,,2013-08-25 04:54:00,
2013-08-24 22:03:00,58.0,45.0,-100.00,North,1,13.0,26.0,61,0.00,,,0.00,3.000000,,2013-08-25 05:03:00,
2013-08-24 22:12:00,58.0,45.0,-100.00,North,1,13.0,26.0,61,0.00,,,0.00,3.000000,,2013-08-25 05:12:00,
2013-08-24 22:42:00,59.0,46.0,-100.00,North,1,13.0,20.0,62,0.00,,,0.00,3.000000,,2013-08-25 05:42:00,
2013-08-24 22:52:00,59.0,46.0,-100.00,North,1,13.0,20.0,62,0.00,,,0.00,3.000000,,2013-08-25 05:52:00,
2013-08-24 23:03:00,59.0,46.0,-100.00,North,1,13.0,20.0,62,0.00,,,0.00,3.000000,,2013-08-25 06:03:00,
2013-08-24 23:12:00,59.0,46.0,-100.00,North,1,13.0,20.0,62,0.00,,,0.00,3.000000,,2013-08-25 06:12:00,
2013-08-24 23:43:00,59.0,48.0,-100.00,North,1,11.0,17.0,67,0.00,,,0.00,3.000000,,2013-08-25 06:43:00,
2013-08-24 23:52:00,59.0,48.0,-100.00,North,1,11.0,17.0,67,0.00,,,0.00,3.000000,,2013-08-25 06:52:00,